Regional Weather Roundup
Issued by NWS Cleveland, OH

Home | Current Version | Previous Version | Graphics & Text | Print | Product List | Glossary On
Versions: 1 2 3 4 5 6 7 8 9 10 11 12 13 14 15 16 17 18 19 20 21 22 23 24 25 26 27 28 29 30 31 32 33 34 35 36 37 38 39 40 41 42 43 44 45 46 47 48 49 50
000
ASUS41 KCLE 261210
RWRCLE
OHIO REGIONAL WEATHER ROUNDUP
NATIONAL WEATHER SERVICE CLEVELAND, OH
800 AM EDT WED JUL 26 2017

NOTE: "FAIR" INDICATES FEW OR NO CLOUDS BELOW 12,000 FEET WITH NO
SIGNIFICANT WEATHER AND/OR OBSTRUCTIONS TO VISIBILITY.

OHZ001>008-015>018-024>027-034-035-043-044-261300-
   NORTHWEST OHIO

CITY           SKY/WX    TMP DP  RH WIND       PRES   REMARKS
DEFIANCE       SUNNY    N/A N/A N/A CALM      30.16F
FINDLAY        SUNNY     64  59  83 SE3       30.17R
TOLEDO EXPRESS MOSUNNY   63  62  97 CALM      30.17R
TOLEDO EXEC    SUNNY     64  62  93 S3        30.17F
LIMA           SUNNY     63  60  90 SE3       30.18R
$$

OHZ009>014-019>023-028>033-038-089-261300-
   NORTHEAST OHIO

CITY           SKY/WX    TMP DP  RH WIND       PRES   REMARKS
CLE-HOPKINS    MOSUNNY   64  58  80 CALM      30.20R
CLE-LAKEFRONT  SUNNY     64  56  75 S10       30.17S
CUY CO. ARPT   MOSUNNY   64  50  59 SE7       30.20R
LORAIN-ELYRIA  SUNNY     60  55  83 SW5       30.19R
ASHTABULA      SUNNY     57  56  96 S6        30.21R
AKRON-CANTON   MOSUNNY   63  57  81 SE5       30.19S
WOOSTER        SUNNY     60  58  92 CALM      30.20R
MANSFIELD      SUNNY     62  61  96 S3        30.20R
YOUNGSTOWN     MOSUNNY   60  57  89 SE6       30.20S
$$

OHZ042-051>053-060>062-070>072-077>081-261300-
  SOUTHWEST OHIO

CITY           SKY/WX    TMP DP  RH WIND       PRES   REMARKS
CINC-COVINGTON MOSUNNY   65  62  90 SE5       30.15S
CINC-LUNKEN    MOSUNNY   63  62  97 NE3       30.16S
HAMILTON       SUNNY     63  61  93 CALM      30.17R
DAYTON         MOSUNNY   62  59  90 CALM      30.19R
WRIGHT-PAT AFB SUNNY     62  60  96 CALM      30.18R
DAYTON GENERAL SUNNY     62  59  90 NE3       30.17R
WILMINGTON     SUNNY     61  60  97 CALM      30.17R
$$

OHZ036-037-039>041-045>050-054>059-063>069-073>076-082>088-261300-
  CENTRAL AND SOUTHEAST OHIO

CITY           SKY/WX    TMP DP  RH WIND       PRES   REMARKS
COLUMBUS       MOSUNNY   65  61  87 CALM      30.17S
OSU AIRPORT    SUNNY     63  62  97 CALM      30.18R
BOLTON FIELD   SUNNY     61  61 100 CALM      30.18F
RICKENBACK AFB SUNNY     60  60  99 CALM      30.17S
NEWARK         FOG       59  58  96 CALM      30.17F VSB<1/4
MARION         CLOUDY    63  60  90 S3        30.19R
LANCASTER      FOG       57  57 100 CALM      30.18S VSB 1
ZANESVILLE     SUNNY     60  57  89 CALM      30.18F
NEW PHILLY     NOT AVBL
$$




USA.gov is the U.S. government's official web portal to all federal, state and local government web resources and services.